Location: Unspecified
(0.0000°N, 0.0000°E)
Time: 16:52:58
(UTC+00:00)

ARIANE 6 FM1 Upper Stage - Pass Details

Date: 13 May 2026
Orbit: 526 x 601 km, 62.0° (Epoch: 21 May)

Event Time Altitude Azimuth Distance (km) Brightness Sun altitude
Rises 19:54:54 0° 333° (NNW) 2,655 6.8 -28.0°
Reaches altitude 10° 19:57:04 10° 332° (NNW) 1,775 5.8 -28.5°
Enters shadow 19:59:00 28° 328° (NNW) 1,026 4.4 -28.9°
